#timestamp,LO_Frequency,Hit,StdDev 
1458190815.4,286046987.2,N
1458190835.2,286046986.7,N
1458190855.1,286046985.9,N
1458190856.0,286046985.9,N
1458190875.8,286046985.0,N
1458190895.6,286046986.0,N
1458190915.5,286046989.4,N
1458190935.3,286046988.9,N
1458190955.1,286046986.9,N
1458190975.9,286046990.0,N
1458190995.7,286046987.9,N
1458191015.5,286046986.9,N
1458191035.4,286046985.5,N
1458191055.2,286046987.3,N
1458191075.0,286046991.6,N
1458191075.9,286046991.6,N
1458191095.8,286046990.2,N
1458191115.6,286046996.6,N
1458191135.4,286046999.6,N
1458191155.2,286047001.0,N
1458191175.1,286047003.4,N
1458191176.0,286047003.4,N
1458191195.8,286047008.6,N
1458191215.6,286047013.9,N
1458191235.5,286047013.3,N
1458191255.3,286047014.7,N
1458191275.1,286047020.1,N
1458191295.9,286047021.8,N
1458191315.7,286047020.8,N
1458191335.5,286047019.3,N
1458191355.4,286047025.1,N
1458191375.2,286047022.9,N
1458191395.0,286047023.4,N
1458191395.9,286047023.4,N
1458191415.8,286047026.6,N
1458191435.6,286047026.9,N
1458191455.4,286047027.1,N
1458191475.3,286047029.2,N
1458191495.1,286047027.2,N
1458191496.0,286047027.2,N
1458191515.8,286047028.9,N
1458191535.6,286047031.7,N
1458191555.5,286047036.0,N
1458191575.3,286047037.6,N
1458191595.1,286047039.4,N
1458191615.9,286047038.8,N
1458191635.7,286047038.6,Y
1458191655.5,286047015.7,P
1458191675.4,286047018.8,P
1458191695.2,286047018.5,P
1458191715.0,286047017.9,Y
1458191716.0,286047017.9,P
1458191735.8,286046996.5,P
1458191755.6,286046997.6,N
1458191775.4,286046995.2,N
1458191795.3,286046997.8,N
1458191815.1,286046998.4,N
1458191835.8,286046999.0,N
1458191855.7,286046998.6,N
1458191875.5,286047000.1,N
1458191895.3,286047000.3,N
1458191915.2,286046998.9,N
1458191935.9,286046999.3,N
1458191955.7,286046996.7,N
1458191975.6,286046995.0,N
1458191995.4,286046996.9,N
1458192015.2,286046994.9,N
1458192035.0,286046995.3,N
1458192035.9,286046995.3,N
1458192055.8,286046992.1,N
1458192075.6,286046994.7,N
1458192095.4,286046992.5,N
1458192115.3,286046992.6,N
1458192135.1,286046993.5,N
1458192155.8,286046998.0,N
1458192175.7,286046991.8,N
1458192195.5,286046993.6,N
1458192215.3,286046995.2,N
1458192235.2,286046995.6,N
1458192255.9,286046991.9,N
1458192275.7,286046991.3,N
1458192295.6,286046992.7,N
1458192315.4,286046989.5,Y
1458192335.2,286046990.3,P
1458192355.1,286046995.5,N
1458192356.0,286046995.5,N
1458192375.8,286046995.0,N
1458192395.6,286046992.0,Y
1458192415.5,286046994.9,P
1458192435.3,286046996.6,P
1458192455.1,286046999.5,N
1458192475.9,286046998.9,N
1458192495.7,286046996.7,N
1458192515.5,286046995.1,N
1458192535.4,286046990.1,Y
1458192555.2,286046991.3,P
1458192575.0,286046987.9,P
1458192575.9,286046987.9,P
1458192595.8,286046985.5,Y
1458192615.6,286046995.7,P
1458192635.4,286046995.9,N
1458192655.3,286046997.0,N
1458192675.1,286046996.4,N
1458192676.0,286046996.4,N
1458192695.8,286046991.9,Y
1458192715.7,286046997.7,P
1458192735.5,286046998.9,N
1458192755.3,286046997.2,N
1458192775.1,286046997.5,N
1458192795.9,286046995.1,Y
1458192815.7,286046995.4,P
1458192835.6,286046997.5,N
1458192855.4,286046996.2,P
1458192875.2,286046994.4,Y
1458192895.1,286046996.6,P
1458192896.0,286046996.6,P
1458192915.8,286046997.5,P
1458192935.6,286046994.3,Y
1458192955.5,286046997.4,P
1458192975.3,286046997.2,P
1458192995.1,286046995.6,P
1458193015.9,286046998.4,N
1458193035.7,286046996.5,Y
1458193055.5,286047001.6,P
1458193075.4,286047003.8,N
1458193095.2,286047004.0,N
1458193115.0,286047005.9,N
1458193115.9,286047005.9,N
1458193135.7,286047004.5,N
1458193155.6,286047006.9,N
1458193175.4,286047009.0,Y
1458193195.2,286047003.7,P
1458193215.1,286047001.5,P
1458193216.0,286047001.5,N
1458193235.8,286047004.0,Y
1458193255.7,286047004.3,P
1458193275.5,286047002.0,N
1458193295.3,286047002.6,N
1458193315.1,286047001.3,N
1458193335.9,286047000.9,N
1458193355.7,286047002.6,N
1458193375.5,286047000.4,N
1458193395.4,286047003.6,Y
1458193415.2,286047004.3,P
1458193435.0,286047001.3,N
1458193435.9,286047001.3,N
1458193455.8,286047004.1,Y
1458193475.6,286047003.3,P
1458193495.4,286047005.2,P
1458193515.3,286047005.5,P
1458193535.1,286047003.4,N
1458193555.8,286047001.5,N
1458193575.7,286047005.5,Y
1458193595.5,286047002.9,P
1458193615.3,286047004.2,P
1458193635.2,286047001.5,N
1458193655.9,286047000.1,N
1458193675.7,286047005.9,Y
1458193695.6,286047001.4,P
1458193715.4,286047002.7,P
1458193735.2,286047001.8,P
1458193755.1,286047006.0,Y
1458193756.0,286047006.0,P
1458193775.8,286046997.2,N
1458193795.6,286046997.6,N
1458193815.5,286046999.2,N
1458193835.3,286046999.2,N
1458193855.1,286046996.8,N
1458193875.9,286046995.0,N
1458193895.7,286046999.0,N
1458193915.5,286046997.8,N
1458193935.4,286046993.6,N
1458193955.2,286046993.7,N
1458193975.0,286046993.7,N
1458193975.9,286046993.7,N
1458193995.8,286046994.5,N
1458194015.6,286046994.2,N
1458194035.4,286046993.1,N
1458194055.3,286046991.8,N
1458194075.1,286046992.3,N
1458194076.0,286046992.3,N
1458194095.8,286046994.7,N
1458194115.7,286046992.9,N
1458194135.5,286046989.2,Y
1458194155.3,286046993.4,P
1458194175.2,286046995.6,P
1458194195.9,286046995.9,P
1458194215.7,286046999.4,N
1458194235.6,286046995.3,N
1458194255.4,286046996.1,N
1458194275.2,286046993.9,Y
1458194295.1,286046996.9,P
1458194296.0,286046996.9,P
1458194315.8,286046999.6,N
1458194335.6,286046998.6,N
1458194355.5,286047002.4,N
1458194375.3,286047002.3,N
1458194395.1,286047000.7,N
